User: anonymous   Login
Location: Unspecified
(0.0000°N, 0.0000°E)
Time: 02:02:43
(UTC+00:00)
Language:

STARLINK-2500 - Orbit

View from above orbital plane
View from above orbital plane
View from above satellite
View from above satellite

Ground track
Ground track

The orbit is defined by the following mean orbital elements,

1 48485U          26145.52255130 +.00000000 +00000-0 +13435-4 0 00003
2 48485  53.1594 196.3755 0001211  91.6661 268.4479 15.31695030    01
Epoch (UTC): 25 May 2026 12:32:28
Eccentricity: 0.0001211
inclination: 53.1594°
perigee height: 470 km
apogee height: 472 km
right ascension of ascending node: 196.3755°
argument of perigee: 91.6661°
revolutions per day: 15.31695030
mean anomaly at epoch: 268.4479°

The dashed part of the orbit path shows where the satellite is in the earth's shadow,  

DLR